When you browse on this site, cookies collect data to enhance your experience and personalize the content and advertising you see.
Visit our Privacy Policy to learn more. By continuing to use the site, you agree to this use of cookies and data.
  • In Deutschland
  • Länderverzeichnis
  • Für 7 Tage
  • Wassertemperatur
  • Wetterkarte
  • Widgets
  • user-avatar
    Anmelden

    Stündliche Wetter Annaba

    Heute, 23 September, Montag

    Zeit Temperatur Niederschläge Wind Luftdruck Luftfeuchtigkeit
    00:00 +26°C° 0 mm 1 m/S 760 mmHg 81%
    01:00 +26°C° 0 mm 1 m/S 760 mmHg 84%
    02:00 +25°C° 0 mm 2 m/S 760 mmHg 86%
    03:00 +25°C° 0 mm 2 m/S 760 mmHg 87%
    04:00 +25°C° 0 mm 2 m/S 760 mmHg 89%
    05:00 +25°C° 0 mm 2 m/S 760 mmHg 89%
    06:00 +25°C° 0 mm 2 m/S 761 mmHg 89%
    07:00 +25°C° 0 mm 2 m/S 761 mmHg 89%
    08:00 +26°C° 0 mm 2 m/S 761 mmHg 79%
    09:00 +27°C° 0 mm 3 m/S 761 mmHg 69%
    10:00 +29°C° 0 mm 3 m/S 762 mmHg 59%
    11:00 +29°C° 0 mm 3 m/S 762 mmHg 57%
    12:00 +30°C° 0 mm 4 m/S 762 mmHg 54%
    13:00 +32°C° 0 mm 5 m/S 761 mmHg 52%
    14:00 +30°C° 0 mm 4 m/S 761 mmHg 53%
    15:00 +30°C° 0 mm 4 m/S 761 mmHg 54%
    16:00 +30°C° 0 mm 4 m/S 761 mmHg 56%
    17:00 +28°C° 0 mm 4 m/S 761 mmHg 63%
    18:00 +27°C° 0 mm 3 m/S 761 mmHg 70%
    19:00 +26°C° 0 mm 2 m/S 761 mmHg 78%
    20:00 +25°C° 0 mm 2 m/S 762 mmHg 80%
    21:00 +25°C° 0 mm 2 m/S 762 mmHg 82%
    22:00 +25°C° 0 mm 2 m/S 762 mmHg 84%
    23:00 +25°C° 0 mm 2 m/S 762 mmHg 84%

    Morgen, 24 September, Dienstag

    Zeit Temperatur Niederschläge Wind Luftdruck Luftfeuchtigkeit
    00:00 +24°C° 0 mm 2 m/S 762 mmHg 85%
    01:00 +24°C° 0 mm 2 m/S 762 mmHg 86%
    02:00 +24°C° 0 mm 2 m/S 762 mmHg 87%
    03:00 +24°C° 0 mm 2 m/S 762 mmHg 87%
    04:00 +24°C° 0 mm 2 m/S 761 mmHg 88%
    05:00 +24°C° 0 mm 1 m/S 761 mmHg 87%
    06:00 +24°C° 0 mm 1 m/S 761 mmHg 87%
    07:00 +24°C° 0 mm 1 m/S 761 mmHg 87%
    08:00 +25°C° 0 mm 1 m/S 761 mmHg 79%
    09:00 +27°C° 0 mm 1 m/S 762 mmHg 71%
    10:00 +28°C° 0 mm 1 m/S 762 mmHg 63%
    11:00 +29°C° 0 mm 2 m/S 762 mmHg 60%
    12:00 +29°C° 0 mm 2 m/S 761 mmHg 56%
    13:00 +30°C° 0 mm 3 m/S 761 mmHg 53%
    14:00 +29°C° 0 mm 3 m/S 761 mmHg 55%
    15:00 +29°C° 0 mm 3 m/S 760 mmHg 58%
    16:00 +28°C° 0 mm 3 m/S 760 mmHg 60%
    17:00 +27°C° 0 mm 2 m/S 760 mmHg 67%
    18:00 +26°C° 0 mm 1 m/S 760 mmHg 73%
    19:00 +23°C° 0 mm 0 m/S 760 mmHg 79%
    20:00 +24°C° 0 mm 1 m/S 760 mmHg 81%
    21:00 +24°C° 0 mm 1 m/S 761 mmHg 82%
    22:00 +24°C° 0 mm 1 m/S 761 mmHg 83%
    23:00 +23°C° 0 mm 1 m/S 760 mmHg 82%

    übermorgen, 25 September, Mittwoch

    Zeit Temperatur Niederschläge Wind Luftdruck Luftfeuchtigkeit
    00:00 +21°C° 0 mm 0 m/S 760 mmHg 82%
    01:00 +21°C° 0 mm 0 m/S 760 mmHg 81%
    02:00 +21°C° 0 mm 0 m/S 760 mmHg 81%
    03:00 +21°C° 0 mm 0 m/S 759 mmHg 81%
    04:00 +20°C° 0 mm 0 m/S 759 mmHg 82%
    05:00 +21°C° 0 mm 0 m/S 759 mmHg 81%
    06:00 +23°C° 0 mm 1 m/S 759 mmHg 79%
    07:00 +23°C° 0 mm 1 m/S 759 mmHg 78%
    08:00 +25°C° 0 mm 1 m/S 759 mmHg 68%
    09:00 +27°C° 0 mm 1 m/S 760 mmHg 59%
    10:00 +29°C° 0 mm 1 m/S 760 mmHg 49%
    11:00 +30°C° 0 mm 1 m/S 760 mmHg 46%
    12:00 +30°C° 0 mm 2 m/S 759 mmHg 43%
    13:00 +31°C° 0 mm 3 m/S 759 mmHg 40%
    14:00 +30°C° 0 mm 3 m/S 759 mmHg 43%
    15:00 +30°C° 0 mm 2 m/S 759 mmHg 45%
    16:00 +29°C° 0 mm 2 m/S 758 mmHg 47%
    17:00 +28°C° 0 mm 2 m/S 759 mmHg 54%
    18:00 +26°C° 0 mm 1 m/S 759 mmHg 60%
    19:00 +25°C° 0 mm 1 m/S 759 mmHg 67%
    20:00 +24°C° 0 mm 1 m/S 760 mmHg 68%
    21:00 +24°C° 0 mm 1 m/S 760 mmHg 68%
    22:00 +24°C° 0 mm 1 m/S 760 mmHg 69%
    23:00 +24°C° 0 mm 1 m/S 760 mmHg 68%

    26 September, Donnerstag

    Zeit Temperatur Niederschläge Wind Luftdruck Luftfeuchtigkeit
    00:00 +23°C° 0 mm 1 m/S 760 mmHg 66%
    01:00 +23°C° 0 mm 1 m/S 760 mmHg 65%
    02:00 +23°C° 0 mm 1 m/S 760 mmHg 65%
    03:00 +23°C° 0 mm 1 m/S 760 mmHg 65%
    04:00 +23°C° 0 mm 1 m/S 760 mmHg 65%
    05:00 +23°C° 0 mm 1 m/S 760 mmHg 65%
    06:00 +23°C° 0 mm 1 m/S 761 mmHg 66%
    07:00 +23°C° 0 mm 1 m/S 761 mmHg 66%
    08:00 +24°C° 0 mm 1 m/S 761 mmHg 62%
    09:00 +26°C° 0 mm 1 m/S 762 mmHg 58%
    10:00 +27°C° 0 mm 2 m/S 762 mmHg 54%
    11:00 +28°C° 0 mm 2 m/S 762 mmHg 53%
    12:00 +29°C° 0 mm 3 m/S 762 mmHg 52%
    13:00 +29°C° 0 mm 3 m/S 762 mmHg 52%
    14:00 +29°C° 0 mm 3 m/S 762 mmHg 56%
    15:00 +28°C° 0 mm 4 m/S 762 mmHg 60%
    16:00 +27°C° 0 mm 4 m/S 761 mmHg 64%
    17:00 +26°C° 0 mm 3 m/S 762 mmHg 68%
    18:00 +25°C° 0 mm 3 m/S 762 mmHg 72%
    19:00 +24°C° 0 mm 2 m/S 762 mmHg 76%
    20:00 +24°C° 0 mm 2 m/S 763 mmHg 77%
    21:00 +23°C° 0 mm 1 m/S 763 mmHg 78%
    22:00 +23°C° 0 mm 1 m/S 763 mmHg 79%
    23:00 +23°C° 0 mm 1 m/S 763 mmHg 80%

    27 September, Freitag

    Zeit Temperatur Niederschläge Wind Luftdruck Luftfeuchtigkeit
    00:00 +22°C° 0 mm 1 m/S 763 mmHg 81%
    01:00 +20°C° 0 mm 0 m/S 763 mmHg 82%
    02:00 +20°C° 0 mm 0 m/S 763 mmHg 82%
    03:00 +20°C° 0 mm 0 m/S 762 mmHg 83%
    04:00 +20°C° 0 mm 0 m/S 762 mmHg 84%
    05:00 +20°C° 0 mm 0 m/S 762 mmHg 83%
    06:00 +20°C° 0 mm 0 m/S 762 mmHg 82%
    07:00 +20°C° 0 mm 0 m/S 762 mmHg 81%
    08:00 +23°C° 0 mm 1 m/S 762 mmHg 73%
    09:00 +25°C° 0 mm 1 m/S 763 mmHg 65%
    10:00 +26°C° 0 mm 1 m/S 763 mmHg 58%
    11:00 +27°C° 0 mm 2 m/S 762 mmHg 56%
    12:00 +28°C° 0 mm 2 m/S 762 mmHg 54%
    13:00 +28°C° 0 mm 3 m/S 762 mmHg 52%
    14:00 +28°C° 0 mm 3 m/S 762 mmHg 54%
    15:00 +28°C° 0 mm 3 m/S 761 mmHg 55%
    16:00 +27°C° 0 mm 3 m/S 761 mmHg 57%
    17:00 +26°C° 0 mm 3 m/S 761 mmHg 62%
    18:00 +25°C° 0 mm 3 m/S 762 mmHg 67%
    19:00 +24°C° 0 mm 2 m/S 762 mmHg 72%
    20:00 +23°C° 0 mm 2 m/S 762 mmHg 74%
    21:00 +23°C° 0 mm 2 m/S 763 mmHg 76%
    22:00 +23°C° 0 mm 1 m/S 763 mmHg 78%
    23:00 +22°C° 0 mm 1 m/S 763 mmHg 79%

    28 September, Samstag

    Zeit Temperatur Niederschläge Wind Luftdruck Luftfeuchtigkeit
    00:00 +22°C° 0 mm 1 m/S 763 mmHg 80%
    01:00 +22°C° 0 mm 1 m/S 763 mmHg 81%
    02:00 +21°C° 0 mm 1 m/S 763 mmHg 81%
    03:00 +21°C° 0 mm 1 m/S 762 mmHg 82%
    04:00 +19°C° 0 mm 0 m/S 762 mmHg 83%
    05:00 +21°C° 0 mm 1 m/S 762 mmHg 83%
    06:00 +21°C° 0 mm 1 m/S 762 mmHg 82%
    07:00 +21°C° 0 mm 1 m/S 762 mmHg 82%
    08:00 +23°C° 0 mm 1 m/S 763 mmHg 74%
    09:00 +25°C° 0 mm 1 m/S 763 mmHg 66%
    10:00 +26°C° 0 mm 1 m/S 763 mmHg 58%
    11:00 +27°C° 0 mm 2 m/S 763 mmHg 57%
    12:00 +28°C° 0 mm 2 m/S 763 mmHg 55%
    13:00 +28°C° 0 mm 3 m/S 762 mmHg 53%
    14:00 +28°C° 0 mm 3 m/S 762 mmHg 55%
    15:00 +28°C° 0 mm 3 m/S 762 mmHg 57%
    16:00 +27°C° 0 mm 3 m/S 761 mmHg 58%
    17:00 +26°C° 0 mm 3 m/S 761 mmHg 65%
    18:00 +25°C° 0 mm 2 m/S 762 mmHg 71%
    19:00 +23°C° 0 mm 2 m/S 762 mmHg 77%
    20:00 +23°C° 0 mm 2 m/S 762 mmHg 79%
    21:00 +23°C° 0 mm 2 m/S 762 mmHg 81%
    22:00 +22°C° 0 mm 1 m/S 762 mmHg 83%
    23:00 +22°C° 0 mm 1 m/S 762 mmHg 84%
    Mehr zeigen